This demonstration page uses our WeatherBlox Daily Observations layout. Learn more.

Left ArrowRight Arrow

Hourly Observations for May 3, 2015

Temp ( °F °C ) Dew Point ( °F °C ) Humidity (%) Winds ( mph kmh ) Pressure ( in mb ) Visibility ( mi km ) Precip ( " mm )
12:16 am 00:16 Clear 55 13 37 3 51 51 S 3 6 30.06 1018 10 16.0934 N/A
12:36 am 00:36 Clear 55 13 37 3 51 51 SSW 3 6 30.06 1018 10 16.0934 N/A
12:56 am 00:56 Clear 55 13 37 3 51 51 SSW 3 6 30.06 1018 10 16.0934 N/A
1:16 am 01:16 Clear 54 12 37 3 54 54 Calm 30.09 1019 10 16.0934 N/A
1:36 am 01:36 Clear 52 11 37 3 58 58 Calm 30.09 1019 10 16.0934 N/A
1:56 am 01:56 Clear 50 10 39 4 67 67 Calm 30.09 1019 10 16.0934 N/A
2:16 am 02:16 Clear 52 11 39 4 62 62 Calm 30.09 1019 10 16.0934 N/A
2:36 am 02:36 Clear 50 10 39 4 67 67 SSE 3 6 30.09 1019 10 16.0934 N/A
2:56 am 02:56 Clear 50 10 41 5 71 71 Calm 30.09 1019 10 16.0934 N/A
3:16 am 03:16 Clear 50 10 41 5 71 71 S 3 6 30.09 1019 10 16.0934 N/A
3:36 am 03:36 Clear 50 10 41 5 71 71 SSE 5 7 30.09 1019 10 16.0934 N/A
3:56 am 03:56 Clear 50 10 41 5 71 71 S 5 7 30.09 1019 10 16.0934 N/A
4:16 am 04:16 Clear 50 10 41 5 71 71 Calm 30.09 1019 10 16.0934 N/A
4:36 am 04:36 Clear 48 9 41 5 76 76 Calm 30.09 1019 10 16.0934 N/A
4:56 am 04:56 Clear 50 10 41 5 71 71 SSE 5 7 30.09 1019 10 16.0934 N/A
5:16 am 05:16 Clear 48 9 45 7 87 87 S 6 9 30.09 1019 10 16.0934 N/A
5:36 am 05:36 Clear 50 10 41 5 71 71 SSE 6 9 30.09 1019 10 16.0934 N/A
5:56 am 05:56 Clear 52 11 39 4 62 62 S 5 7 30.09 1019 10 16.0934 N/A
6:16 am 06:16 Clear 50 10 41 5 71 71 S 5 7 30.09 1019 10 16.0934 N/A
6:36 am 06:36 Clear 52 11 39 4 62 62 S 6 9 30.09 1019 10 16.0934 N/A
6:56 am 06:56 Sunny 52 11 41 5 67 67 S 6 9 30.12 1020 10 16.0934 N/A
7:16 am 07:16 Sunny 52 11 41 5 67 67 SSE 6 9 30.12 1020 10 16.0934 N/A
7:36 am 07:36 Sunny 54 12 41 5 63 63 SSE 7 11 30.12 1020 10 16.0934 N/A
7:55 am 07:55 Sunny 55 13 41 5 59 59 S 5 7 30.09 1019 10 16.0934 N/A
8:16 am 08:16 Sunny 55 13 39 4 55 55 S 8 13 30.09 1019 10 16.0934 N/A
8:36 am 08:36 Sunny 57 14 39 4 51 51 S 7 11 30.09 1019 7 11.26538 N/A
8:56 am 08:56 Sunny 59 15 39 4 48 48 S 7 11 30.09 1019 7 11.26538 N/A
9:16 am 09:16 Sunny 59 15 41 5 51 51 S 7 11 30.09 1019 10 16.0934 N/A
9:36 am 09:36 Sunny 64 18 39 4 40 40 S 8 13 30.09 1019 10 16.0934 N/A
9:56 am 09:56 Sunny 66 19 37 3 35 35 S 9 15 30.09 1019 10 16.0934 N/A
10:16 am 10:16 Sunny 66 19 37 3 35 35 SSW 9 15 30.09 1019 10 16.0934 N/A
10:36 am 10:36 Sunny 68 20 36 2 30 30 SSW 8 13 30.09 1019 10 16.0934 N/A
10:56 am 10:56 Sunny 68 20 36 2 30 30 SSW 7 11 30.12 1020 10 16.0934 N/A
11:16 am 11:16 Sunny 68 20 37 3 33 33 SSW 9 15 30.12 1020 10 16.0934 N/A
11:36 am 11:36 Sunny 68 20 37 3 33 33 SSW 9 15 30.12 1020 10 16.0934 N/A
11:55 am 11:55 Sunny 72 22 34 1 25 25 SW 12 19 30.09 1019 10 16.0934 N/A
12:16 pm 12:16 Sunny 73 23 32 0 22 22 SW 13 20 30.09 1019 10 16.0934 N/A
12:36 pm 12:36 Sunny 73 23 30 -1 20 20 SSW 9 15 30.06 1018 10 16.0934 N/A
12:56 pm 12:56 Sunny 75 24 28 -2 18 18 S 15 24 30.06 1018 10 16.0934 N/A
1:16 pm 13:16 Sunny 75 24 28 -2 18 18 SW 15 24 30.06 1018 10 16.0934 N/A
1:36 pm 13:36 Sunny 75 24 27 -3 16 16 SW 14 22 30.06 1018 10 16.0934 N/A
1:56 pm 13:56 Sunny 75 24 25 -4 15 15 SSW 13 20 30.06 1018 10 16.0934 N/A
2:15 pm 14:15 Sunny 77 25 27 -3 15 15 SW 14 22 30.06 1018 10 16.0934 N/A
2:36 pm 14:36 Sunny 79 26 23 -5 12 12 SSW 17 28 30.03 1017 10 16.0934 N/A
2:56 pm 14:56 Sunny 77 25 23 -5 13 13 SW 15 24 30.03 1017 10 16.0934 N/A
3:16 pm 15:16 Sunny 77 25 21 -6 12 12 SSW 13 20 30.03 1017 10 16.0934 N/A
3:36 pm 15:36 Sunny 79 26 19 -7 11 11 SW 15 24 30.03 1017 10 16.0934 N/A
3:55 pm 15:55 Sunny 79 26 21 -6 12 12 SW 16 26 30.03 1017 10 16.0934 N/A
4:16 pm 16:16 Sunny 79 26 23 -5 12 12 SW 15 24 30.03 1017 10 16.0934 N/A
4:36 pm 16:36 Sunny 79 26 21 -6 12 12 SW 15 24 30 1016 10 16.0934 N/A
4:56 pm 16:56 Sunny 79 26 21 -6 12 12 SSW 13 20 30 1016 10 16.0934 N/A
5:16 pm 17:16 Sunny 79 26 23 -5 12 12 SW 15 24 30 1016 10 16.0934 N/A
5:36 pm 17:36 Sunny 79 26 21 -6 12 12 SSW 13 20 30 1016 10 16.0934 N/A
5:56 pm 17:56 Sunny 79 26 23 -5 12 12 SW 12 19 30 1016 10 16.0934 N/A
6:15 pm 18:15 Sunny 79 26 19 -7 11 11 SSW 14 22 30 1016 10 16.0934 N/A
6:36 pm 18:36 Sunny 79 26 19 -7 11 11 SW 13 20 30 1016 10 16.0934 N/A
6:56 pm 18:56 Sunny 77 25 21 -6 12 12 SW 12 19 30 1016 10 16.0934 N/A
7:16 pm 19:16 Sunny 77 25 19 -7 11 11 SSW 12 19 30 1016 10 16.0934 N/A
7:36 pm 19:36 Sunny 77 25 19 -7 11 11 SSW 10 17 30 1016 10 16.0934 N/A
7:56 pm 19:56 Sunny 75 24 23 -5 14 14 SSW 8 13 30 1016 10 16.0934 N/A
8:16 pm 20:16 Sunny 73 23 25 -4 16 16 SSW 6 9 30 1016 10 16.0934 N/A
8:36 pm 20:36 Sunny 72 22 27 -3 19 19 SSW 5 7 30 1016 10 16.0934 N/A
8:56 pm 20:56 Clear 70 21 28 -2 21 21 S 5 7 30 1016 10 16.0934 N/A
9:15 pm 21:15 Clear 68 20 32 0 26 26 S 3 6 30.06 1018 10 16.0934 N/A
9:36 pm 21:36 Clear 68 20 32 0 26 26 S 3 6 30.06 1018 10 16.0934 N/A
9:56 pm 21:56 Clear 64 18 36 2 34 34 S 3 6 30.06 1018 10 16.0934 N/A
10:16 pm 22:16 Clear 64 18 36 2 34 34 S 5 7 30.06 1018 10 16.0934 N/A
10:36 pm 22:36 Clear 63 17 36 2 37 37 S 5 7 30.06 1018 10 16.0934 N/A
10:56 pm 22:56 Clear 63 17 37 3 39 39 S 5 7 30.06 1018 10 16.0934 N/A
11:16 pm 23:16 Clear 63 17 37 3 39 39 S 5 7 30.06 1018 10 16.0934 N/A
11:36 pm 23:36 Clear 63 17 37 3 39 39 S 6 9 30.06 1018 10 16.0934 N/A
11:56 pm 23:56 Clear 63 17 37 3 39 39 S 5 7 30.06 1018 10 16.0934 N/A

Powered by AerisWeather